Weather History for Fryeburg, ME

Change the Weather History Date:

Monday, November 19, 2012

  Actual Average Record
Temperature  
Mean Temperature 29 °F -  
Max Temperature 46 °F 42 °F 64 °F (2001)
Min Temperature 12 °F 23 °F 7 °F (2008)
Degree Days  
Heating Degree Days 36    
Moisture  
Dew Point 18 °F    
Average Humidity 78    
Maximum Humidity 96    
Minimum Humidity 40    
Precipitation  
Precipitation 0.00 in - - ()
Sea Level Pressure  
Sea Level Pressure 30.50 in    
Wind  
Wind Speed 0 mph (NE)    
Max Wind Speed 4 mph    
Max Gust Speed -    
Visibility 10 miles    
Events Rain    
Averages and records for this station are not official NWS values.
T = Trace of Precipitation, MM = Missing Value Source: NWS Daily Summary

Daily Weather History Graph

Daily Weather History Graph

Search for Another Location

Airport:

Trip Planner

Search our weather history database for the weather conditions in past years. The results will help you decide how hot, cold, wet, or windy it might be!

Date:

Astronomy

Nov. 19, 2012 Rise Set
Actual Time 6:44 AM EST 4:13 PM EST
Civil Twilight 6:12 AM EST 4:45 PM EST
Nautical Twilight 5:37 AM EST 5:20 PM EST
Astronomical Twilight 5:03 AM EST 5:54 PM EST
Moon 11:41 AM EST (11/19) 10:43 PM EST (11/19)
Length of Visible Light 10h 32m
Length of Day
9h 29m
Waxing Crescent, 40% of the Moon is Illuminated
Nov 19
Waxing Crescent
Nov 20
First Quarter
Nov 28
Full
Dec 6
Last Quarter
Dec 13
New

Hourly Weather History & Observations

Time (EST) Temp. Windchill Dew Point Humidity Pressure Visibility Wind Dir Wind Speed Gust Speed Precip Events Conditions
12:54 AM 17.1 °F - 14.0 °F 88% 30.66 in 10.0 mi Calm Calm - N/A   Clear
1:54 AM 17.1 °F - 14.0 °F 88% 30.65 in 10.0 mi Calm Calm - N/A   Clear
2:54 AM 16.0 °F - 12.9 °F 88% 30.63 in 10.0 mi Calm Calm - N/A   Clear
3:54 AM 15.1 °F - 12.0 °F 88% 30.62 in 10.0 mi Calm Calm - N/A   Clear
4:19 AM 14.0 °F - 10.4 °F 86% 30.60 in 10.0 mi Calm Calm - N/A   Scattered Clouds
4:54 AM 15.1 °F - 12.0 °F 88% 30.62 in 10.0 mi Calm Calm - N/A   Clear
5:40 AM 12.2 °F - 10.4 °F 92% 30.58 in 10.0 mi Calm Calm - N/A   Scattered Clouds
5:54 AM 12.9 °F - 10.0 °F 88% 30.61 in 10.0 mi Calm Calm - N/A   Mostly Cloudy
6:54 AM 12.0 °F 5.9 °F 9.0 °F 88% 30.61 in 10.0 mi NW 3.5 mph - N/A   Mostly Cloudy
7:09 AM 12.2 °F - 10.4 °F 92% 30.58 in 10.0 mi Calm Calm - N/A   Partly Cloudy
7:54 AM 19.9 °F - 17.1 °F 89% 30.59 in 10.0 mi Calm Calm - N/A   Clear
8:54 AM 27.0 °F - 23.0 °F 85% 30.57 in 10.0 mi Calm Calm - 0.00 in   Clear
9:54 AM 33.1 °F - 24.1 °F 70% 30.55 in 10.0 mi Calm Calm - 0.00 in Rain Light Rain
10:54 AM 39.0 °F - 21.9 °F 50% 30.51 in 10.0 mi Calm Calm - 0.00 in   Clear
11:54 AM 43.0 °F 41.3 °F 19.9 °F 40% 30.47 in 10.0 mi East 3.5 mph - 0.00 in   Clear
12:54 PM 45.0 °F - 21.9 °F 40% 30.46 in 10.0 mi Calm Calm - 0.00 in Rain Light Rain
1:54 PM 46.9 °F - 25.0 °F 42% 30.43 in 10.0 mi Calm Calm - 0.00 in   Clear
2:54 PM 46.9 °F - 26.1 °F 44% 30.41 in 10.0 mi NE 3.5 mph - N/A   Clear
3:54 PM 39.9 °F - 25.0 °F 55% 30.40 in 10.0 mi Calm Calm - 0.00 in   Clear
4:54 PM 30.0 °F - 23.0 °F 75% 30.40 in 10.0 mi Calm Calm - 0.00 in   Clear
5:54 PM 26.1 °F - 21.9 °F 84% 30.40 in 10.0 mi Calm Calm - N/A   Clear
6:54 PM 26.1 °F - 23.0 °F 88% 30.39 in 10.0 mi Calm Calm - N/A   Clear
7:54 PM 24.1 °F - 21.0 °F 88% 30.37 in 10.0 mi Calm Calm - 0.00 in   Clear
8:54 PM 21.0 °F - 19.0 °F 92% 30.35 in 10.0 mi Calm Calm - N/A   Clear
9:54 PM 21.9 °F - 19.0 °F 89% 30.32 in 10.0 mi Calm Calm - N/A   Clear
10:54 PM 21.0 °F - 19.9 °F 96% 30.31 in 10.0 mi Calm Calm - N/A   Clear
11:54 PM 18.0 °F - 16.0 °F 92% 30.30 in 10.0 mi Calm Calm - N/A   Clear